Regional Weather Roundup
Issued by NWS

Home | Current Version | Previous Version | Text Only | Print | Product List | Glossary Off
Versions: 1 2 3 4 5 6 7 8 9 10 11 12 13 14 15 16 17 18 19 20 21 22 23 24 25 26 27 28 29 30 31 32 33 34 35 36 37 38 39 40 41 42 43 44 45 46 47 48 49 50

000
ASUS43 KLOT 240008
RWRIL

ILLINOIS REGIONAL WEATHER ROUNDUP
NATIONAL WEATHER SERVICE CHICAGO/ROMEOVILLE IL
700 PM CDT TUE AUG 23 2016

NOTE: "FAIR" INDICATES FEW OR NO CLOUDS BELOW 12,000 FEET WITH NO
SIGNIFICANT WEATHER AND/OR OBSTRUCTIONS TO VISIBILITY.

* THESE STATIONS ARE NOT UNDER NWS QUALITY CONTROL. THEY ALSO MAY NOT
  REPORT WEATHER SUCH AS PRECIPITATION OR FOG.

ILZ001-002-007-009-015-016-024-240100-
NORTHWEST ILLINOIS

CITY           SKY/WX    TMP DP  RH WIND       PRES   REMARKS
MOLINE         CLOUDY    76  67  73 S12       30.04F
6HR MIN TEMP:  76; 6HR MAX TEMP:  82;

STERLING*      CLOUDY    76  68  76 VRB6      30.07F
SAVANNA*       CLOUDY    77  67  71 S12       30.04F
$$

ILZ003-004-008-010-011-017-018-240100-
NORTH CENTRAL ILLINOIS

CITY           SKY/WX    TMP DP  RH WIND       PRES   REMARKS
ROCKFORD       CLOUDY    76  64  66 S10       30.10F
6HR MIN TEMP:  76; 6HR MAX TEMP:  81;

FREEPORT*      PTCLDY    74  65  72 S9        30.09F
ROCHELLE*      CLOUDY    74  66  75 S9        30.10F
DE KALB*       CLOUDY    75  65  72 S9        30.12F
$$

ILZ005-006-012>014-019>023-240100-
NORTHEAST ILLINOIS

CITY           SKY/WX    TMP DP  RH WIND       PRES   REMARKS
CHICAGO-OHARE  MOCLDY    76  61  59 S14       30.12F
6HR MIN TEMP:  76; 6HR MAX TEMP:  81;

CHICAGO-MIDWAY MOCLDY    79  60  52 S12       30.13F HX  80
6HR MIN TEMP:  79; 6HR MAX TEMP:  82;

AURORA         CLOUDY    77  64  64 S9        30.12F
6HR MIN TEMP:  77; 6HR MAX TEMP:  82;

LANSING*       PTCLDY    75  62  64 S9        30.15F
JOLIET*        CLOUDY    78  65  63 S7        30.13F HX  80
WAUKEGAN       PTCLDY    78  60  53 S14       30.11S
6HR MIN TEMP:  78; 6HR MAX TEMP:  82;

DUPAGE AIRPORT CLOUDY    77  61  57 S13       30.11F
6HR MIN TEMP:  76; 6HR MAX TEMP:  81;

KANKAKEE*      MOCLDY    75  64  70 SE6       30.15F
WHEELING       PTCLDY    78  59  51 S12       30.13F
6HR MIN TEMP:  78; 6HR MAX TEMP:  82;

MORRIS*        CLOUDY    76  65  69 S6        30.11S
ROMEOVILLE*    CLOUDY    76  61  60 S9        30.13F
NORTHERLY ISL    N/A     78  58  49 S13         N/A
$$

LMZ740>746-240100-
SOUTHERN LAKE MICHIGAN

STATION/POSITION SKY/WX   TEMP    WIND        PRES    VSBY  WAVE
                          AIR SEA DIR/SP/G                  HT/PER
                          (F)     (DEG/KT/KT) (MB)    (MI)  (FT/S)
SOUTHERN BUOY              76 75  150/ 16/ 17 1019.5F         2/ 4
WILMETTE HARBOR            76 72  230/ 12/ 14   N/A           2/ 2
HARRISON CRIB              77     200/ 18/ 18   N/A
BURNHAM HARBOR             77     180/ 11/ 14   N/A
CALUMET HARBOR             78     200/ 13/ 18 1020.4S
BURNS HARBOR               79     180/  9/ 18 1021.7R
MICHIGAN CITY              77     170/ 10/ 12   N/A
MICHIGAN CITY 6N           76 73  190/  8/ 10   N/A           1/ 3
ST. JOSEPH                 76 75  190/  8/ 12 1021.0S         2/ 3
$$

ILZ025>027-034>036-040-047-049-050-058-095>099-240100-
WEST-CENTRAL ILLINOIS

CITY           SKY/WX    TMP DP  RH WIND       PRES   REMARKS
QUINCY         MOCLDY    75  72  90 S9        30.05F
GALESBURG*     CLOUDY    73  67  84 SE9       30.07F
MACOMB*        CLOUDY    73  69  88 SE8       30.09F
JACKSONVILLE*  CLOUDY    74  68  81 SE12      30.09F
PITTSFIELD*    CLOUDY    75  71  87 S7        30.09S
$$

ILZ028>032-037-038-041>044-048-051>054-059>061-240100-
CENTRAL ILLINOIS

CITY           SKY/WX    TMP DP  RH WIND       PRES   REMARKS
PONTIAC        MOCLDY    76  69  79 S7        30.14S
BLOOMINGTON    CLOUDY    74  66  76 S13       30.14F
DECATUR        CLOUDY    75  66  73 S7        30.14F
PEORIA         CLOUDY    75  68  78 S14       30.10F
6HR MIN TEMP:  75; 6HR MAX TEMP:  82;

LACON*         CLOUDY    75  64  69 S7        30.09F
LINCOLN*       CLOUDY    75  68  80 S6        30.12S
SPRINGFIELD    CLOUDY    75  67  76 S10       30.11F
6HR MIN TEMP:  75; 6HR MAX TEMP:  82; 6HR PCP: TRACE;

TAYLORVILLE    CLOUDY    72  67  84 S6        30.13S
6HR MIN TEMP:  72; 6HR MAX TEMP:  79;

$$

ILZ033-039-045-046-055>057-062-063-240100-
EAST-CENTRAL ILLINOIS

CITY           SKY/WX    TMP DP  RH WIND       PRES   REMARKS
CHAMPAIGN      CLOUDY    74  67  78 SE6       30.15F
RANTOUL*       CLOUDY    76  69  78 S6        30.16S
MATTOON        CLOUDY    75  66  73 SE6       30.15F
PARIS*         CLOUDY    73  69  87 CALM      30.18S
$$

ILZ079-100>102-240100-
SOUTHWEST ILLINOIS

CITY           SKY/WX    TMP DP  RH WIND       PRES   REMARKS
ALTON          CLOUDY    72  68  88 SE7       30.12S
BELLEVILLE     CLOUDY    75  69  82 SE3       30.10F
CAHOKIA*       LGT RAIN  75  70  84 SE6       30.09S
SPARTA*        CLOUDY    74  71  88 SE6       30.13F
$$

ILZ064>066-069>071-074>076-080>082-084>086-088>090-092>094-240100-
SOUTH-CENTRAL ILLINOIS

CITY           SKY/WX    TMP DP  RH WIND       PRES   REMARKS
CARBONDALE     CLOUDY    77  72  84 SE6       30.13F
6HR MIN TEMP:  75; 6HR MAX TEMP:  80;

CAIRO*         CLOUDY    78  74  89 SE5       30.14F HX  80
EFFINGHAM*     CLOUDY    75  68  79 SE6       30.17F
MARION         CLOUDY    79  72  78 SE3       30.15F HX  82
MT. VERNON     CLOUDY    75  64  69 SE5       30.15F
CENTRALIA*     CLOUDY    74  69  83 SE6       30.13F
SALEM*         CLOUDY    76  67  73 SE6       30.15S
$$

ILZ067-068-072-073-078-083-087-091-240100-
SOUTHEAST ILLINOIS

CITY           SKY/WX    TMP DP  RH WIND       PRES   REMARKS
LAWRENCEVILLE  CLOUDY    76  67  73 S5        30.18F
FLORA*         CLOUDY    76  70  84 SE3       30.17S
FAIRFIELD*     CLOUDY    75  69  82 CALM      30.15F
HARRISBURG*    CLOUDY    77  72  84 SE3       30.16S
ROBINSON*      CLOUDY    74  69  84 S5        30.18F
CARMI*         CLOUDY    76  71  83 CALM      30.16S
$$

ABBREVIATIONS USED IN REMARKS
   TC - TEMPERATURE IN CELSIUS
  WCI - WIND CHILL INDEX
   HX - HEAT INDEX
  VSB - VISIBILITY
$$




USA.gov is the U.S. government's official web portal to all federal, state and local government web resources and services.